Location: Bytów
(54.1734°N, 17.4894°E)
Time: 05:28:26
(UTC+02:00)

ISS - Visible Passes

Search period start: 28 May 2018 00:00
Search period end: 07 June 2018 00:00
Orbit: 402 x 407 km, 51.6° (Epoch: 28 May)

Date Brightness Start Highest point End Pass type
(mag) Time Alt. Az. Time Alt. Az. Time Alt. Az.
28 May -1.7 01:07:29 10° WSW 01:08:21 14° WSW 01:08:21 14° WSW visible
28 May -3.6 22:38:27 10° W 22:41:39 51° S 22:44:50 10° ESE visible
29 May -2.6 00:15:01 10° W 00:17:42 24° SSW 00:17:42 24° SSW visible
29 May -3.0 23:22:41 10° W 23:25:40 32° SSW 23:27:06 22° SSE visible
30 May -3.3 22:30:26 10° W 22:33:32 41° SSW 22:36:31 11° SE visible
31 May -1.8 00:07:27 10° WSW 00:09:08 15° SW 00:09:08 15° SW visible
31 May -2.3 23:14:50 10° W 23:17:26 22° SSW 23:18:34 18° S visible
01 Jun -2.7 22:22:26 10° W 22:25:20 29° SSW 22:28:02 11° SE visible
02 Jun -1.6 23:07:22 10° WSW 23:09:02 13° SW 23:10:09 12° SSW visible
03 Jun -2.0 22:14:34 10° W 22:16:59 19° SSW 22:19:24 10° SSE visible
